Thermal, CA

8:06 AM PDT on March 24, 2017 (GMT -0700)
Desert Resorts Regional

Weather History for KTRM - August, 2013

Change the Weather History Date:

Saturday, August 3, 2013

  Actual Average Record
Temperature  
Mean Temperature 86 °F 91 °F  
Max Temperature 106 °F 106 °F 120 °F (1998)
Min Temperature 66 °F 75 °F 64 °F (2002)
Degree Days  
Heating Degree Days 0 0  
Month to date heating degree days 0 0  
Since 1 June heating degree days 0 0  
Since 1 July heating degree days 0 0  
Cooling Degree Days 21 26  
Month to date cooling degree days 72 78  
Year to date cooling degree days 2590 2145  
Since 1 June cooling degree days 1683 1472  
Growing Degree Days 36 (Base 50)    
Moisture  
Dew Point 45 °F    
Average Humidity 31    
Maximum Humidity 58    
Minimum Humidity 3    
Precipitation  
Precipitation 0.00 in 0.01 in 0.26 in (2014)
Month to date precipitation 0.00 0.02  
Year to date precipitation 0.52 1.98  
Since 1 July precipitation 0.08  
Snow  
Snow 0.00 in - - ()
Month to date snowfall 0.0  
Year to date snowfall 0.0  
Snow Depth 0.00 in    
Sea Level Pressure  
Sea Level Pressure 29.78 in    
Wind  
Wind Speed 5 mph (NNW)    
Max Wind Speed 15 mph    
Max Gust Speed 20 mph    
Visibility 10 miles    
Events      
T = Trace of Precipitation, MM = Missing Value Source: NWS Daily Summary

Daily Weather History Graph

Daily Weather History Graph

Search for Another Location

Airport or City:

Trip Planner

Search our weather history database for the weather conditions in past years. The results will help you decide how hot, cold, wet, or windy it might be!

Date:

Astronomy

Aug. 03, 2013 Rise Set
Actual Time 5:58 AM PDT 7:42 PM PDT
Civil Twilight 5:31 AM PDT 8:09 PM PDT
Nautical Twilight 4:58 AM PDT 8:42 PM PDT
Astronomical Twilight 4:24 AM PDT 9:16 PM PDT
Moon 3:13 AM PDT (8/3) 5:26 PM PDT (8/3)
Length of Visible Light 14h 38m
Length of Day
13h 44m
Waning Crescent, 9% of the Moon is Illuminated
Aug 3
Waning Crescent
Aug 6
New
Aug 14
First Quarter
Aug 20
Full
Aug 28
Last Quarter

Hourly Weather History & Observations

Time (PDT) Temp. Heat Index Dew Point Humidity Pressure Visibility Wind Dir Wind Speed Gust Speed Precip Events Conditions
12:52 AM 84.9 °F - 51.1 °F 31% 29.75 in 10.0 mi NNW 15.0 mph 20.7 mph N/A   Clear
1:52 AM 82.9 °F - 51.1 °F 33% 29.76 in 10.0 mi NNW 5.8 mph - N/A   Clear
2:52 AM 80.1 °F - 51.1 °F 36% 29.76 in 10.0 mi NW 5.8 mph - N/A   Clear
3:52 AM 75.9 °F - 51.1 °F 42% 29.75 in 10.0 mi NW 5.8 mph - N/A   Clear
4:52 AM 75.9 °F - 50.0 °F 40% 29.77 in 10.0 mi North 4.6 mph - N/A   Clear
5:52 AM 66.9 °F - 52.0 °F 59% 29.79 in 10.0 mi Calm Calm - N/A   Clear
6:52 AM 73.9 °F - 51.1 °F 45% 29.81 in 10.0 mi Calm Calm - N/A   Clear
7:52 AM 82.9 °F - 50.0 °F 32% 29.84 in 10.0 mi North 3.5 mph - N/A   Clear
8:52 AM 87.1 °F - 52.0 °F 30% 29.85 in 10.0 mi Calm Calm - N/A   Clear
9:52 AM 91.9 °F - 46.0 °F 21% 29.84 in 10.0 mi Calm Calm - N/A   Clear
10:52 AM 95.0 °F - 45.0 °F 18% 29.84 in 10.0 mi Variable 5.8 mph - N/A   Clear
11:52 AM 97.0 °F - 48.0 °F 19% 29.83 in 10.0 mi Variable 3.5 mph - N/A   Clear
12:52 PM 98.1 °F - 45.0 °F 16% 29.81 in 10.0 mi SE 6.9 mph - N/A   Clear
1:52 PM 100.0 °F - 33.1 °F 10% 29.80 in 10.0 mi SE 8.1 mph - N/A   Clear
2:52 PM 102.9 °F - 28.0 °F 7% 29.77 in 10.0 mi Variable 3.5 mph - N/A   Clear
3:52 PM 105.1 °F - 10.9 °F 4% 29.75 in 10.0 mi Variable 5.8 mph - N/A   Clear
4:52 PM 102.9 °F - 30.0 °F 8% 29.73 in 10.0 mi SSE 6.9 mph - N/A   Clear
5:52 PM 102.0 °F - 34.0 °F 9% 29.72 in 10.0 mi SE 4.6 mph - N/A   Clear
6:52 PM 100.0 °F - 39.9 °F 13% 29.74 in 10.0 mi Calm Calm - N/A   Clear
7:52 PM 88.0 °F - 48.0 °F 25% 29.72 in 10.0 mi Calm Calm - N/A   Clear
8:52 PM 91.0 °F - 48.0 °F 23% 29.74 in 10.0 mi NNW 8.1 mph - N/A   Clear
9:52 PM 91.0 °F - 52.0 °F 26% 29.76 in 10.0 mi NW 9.2 mph - N/A   Clear
10:52 PM 88.0 °F 85.7 °F 53.1 °F 30% 29.77 in 10.0 mi NW 12.7 mph - N/A   Clear
11:52 PM 87.1 °F 84.9 °F 53.1 °F 31% 29.77 in 10.0 mi NNW 13.8 mph - N/A   Clear